Starlink 5333

operational
NORAD ID: 56507 Int'l Des: 2023-065 Owner: SPXS Country: US Constellation: starlink
LEOCIRCULAR

About Starlink 5333

Description loading...

Live Position

Loading 3D Globe...

Upcoming Passes

Altitude History

Altitude vs Time

uPlot chart will show altitude changes over time

Two-Line Element Set

1 56507U 23065E 25353.40566632 -.00000272 00000-0 -50784-5 0 9991
2 56507 43.0042 247.9163 0001347 266.2874 93.7815 15.02534758144990
Epoch: Dec 19, 2025 • Age: 13 hours

Current Status

Altitude 560.1 km
Velocity 7.59 km/s
Sub-Earth Point 28.64°N, 46.02°W
Launch Date May 14, 2023
Age 2.6 years
Type internet

Technical Details

Classification Payload
Mass 305.00 kg
Dry Mass 290.00 kg
Total Mass 305.00 kg
Length 0.20 m
Diameter 2.80 m
Span 9.00 m
Shape Box + pan
Manufacturer SPXS
Bus Type Starlink
Phase Status In Orbit
Owner/State SPXS/US

Large Constellations

Loading constellations...